Time,TemperatureF,DewpointF,PressureIn,WindDirection,WindDirectionDegrees,WindSpeedMPH,WindSpeedGustMPH,Humidity,HourlyPrecipIn,Conditions,Clouds,dailyrainin,SoftwareType,DateUTC
2013-02-20 00:02:00,31.0,-36.0,29.58,NW,324,7.0,9.0,4,-99.99,,,-99.99,,2013-02-20 05:02:00,
2013-02-20 00:22:00,30.0,30.0,29.58,North,9,5.0,9.0,100,-99.99,,,-99.99,,2013-02-20 05:22:00,
2013-02-20 00:32:00,30.0,30.0,29.58,North,9,5.0,9.0,100,-99.99,,,-99.99,,2013-02-20 05:32:00,
2013-02-20 00:43:00,30.0,30.0,29.58,North,9,5.0,9.0,100,-99.99,,,-99.99,,2013-02-20 05:43:00,
2013-02-20 00:52:00,30.0,30.0,29.58,North,9,5.0,9.0,100,-99.99,,,-99.99,,2013-02-20 05:52:00,
2013-02-20 01:01:00,29.0,28.0,29.59,NNW,327,4.0,9.0,96,-99.99,,,-99.99,,2013-02-20 06:01:00,
2013-02-20 01:11:00,29.0,29.0,29.59,North,357,4.0,4.0,98,-99.99,,,-99.99,,2013-02-20 06:11:00,
2013-02-20 01:22:00,29.0,29.0,29.59,North,357,4.0,4.0,98,-99.99,,,-99.99,,2013-02-20 06:22:00,
2013-02-20 01:32:00,29.0,29.0,29.59,North,357,4.0,4.0,98,-99.99,,,-99.99,,2013-02-20 06:32:00,
2013-02-20 01:42:00,29.0,29.0,29.59,North,357,4.0,4.0,98,-99.99,,,-99.99,,2013-02-20 06:42:00,
2013-02-20 01:52:00,29.0,29.0,29.58,North,0,2.0,4.0,99,-99.99,,,-99.99,,2013-02-20 06:52:00,
2013-02-20 02:01:00,29.0,29.0,29.58,North,0,1.0,2.0,100,-99.99,,,-99.99,,2013-02-20 07:01:00,
2013-02-20 02:11:00,29.0,29.0,29.58,North,0,1.0,2.0,100,-99.99,,,-99.99,,2013-02-20 07:11:00,
2013-02-20 02:21:00,29.0,29.0,29.59,North,0,5.0,5.0,99,-99.99,,,-99.99,,2013-02-20 07:21:00,
2013-02-20 02:32:00,29.0,29.0,29.59,North,0,5.0,5.0,99,-99.99,,,-99.99,,2013-02-20 07:32:00,
2013-02-20 02:42:00,29.0,29.0,29.59,North,0,5.0,5.0,99,-99.99,,,-99.99,,2013-02-20 07:42:00,
2013-02-20 02:52:00,29.0,28.0,29.60,WNW,301,6.0,9.0,96,-99.99,,,-99.99,,2013-02-20 07:52:00,
2013-02-20 03:05:00,28.0,25.0,29.61,NW,308,4.0,12.0,90,-99.99,,,-99.99,,2013-02-20 08:05:00,
2013-02-20 03:11:00,28.0,25.0,29.61,NW,308,4.0,12.0,90,-99.99,,,-99.99,,2013-02-20 08:11:00,
2013-02-20 03:21:00,27.0,24.0,29.61,North,4,5.0,10.0,87,-99.99,,,-99.99,,2013-02-20 08:21:00,
2013-02-20 03:31:00,27.0,24.0,29.61,North,4,5.0,10.0,87,-99.99,,,-99.99,,2013-02-20 08:31:00,
2013-02-20 03:41:00,27.0,24.0,29.61,North,4,5.0,10.0,87,-99.99,,,-99.99,,2013-02-20 08:41:00,
2013-02-20 03:52:00,27.0,24.0,29.62,North,355,4.0,6.0,89,-99.99,,,-99.99,,2013-02-20 08:52:00,
2013-02-20 04:01:00,27.0,24.0,29.61,North,351,6.0,7.0,90,-99.99,,,-99.99,,2013-02-20 09:01:00,
2013-02-20 04:11:00,27.0,24.0,29.61,North,351,6.0,7.0,90,-99.99,,,-99.99,,2013-02-20 09:11:00,
2013-02-20 04:21:00,27.0,24.0,29.61,North,351,6.0,7.0,90,-99.99,,,-99.99,,2013-02-20 09:21:00,
2013-02-20 04:32:00,26.0,21.0,29.62,WNW,295,8.0,12.0,80,-99.99,,,-99.99,,2013-02-20 09:32:00,
2013-02-20 04:42:00,26.0,21.0,29.62,WNW,295,8.0,12.0,80,-99.99,,,-99.99,,2013-02-20 09:42:00,
2013-02-20 04:52:00,26.0,21.0,29.62,WNW,295,8.0,12.0,80,-99.99,,,-99.99,,2013-02-20 09:52:00,
2013-02-20 05:01:00,25.0,20.0,29.62,North,4,3.0,12.0,80,-99.99,,,-99.99,,2013-02-20 10:01:00,
2013-02-20 05:12:00,25.0,20.0,29.62,North,4,3.0,12.0,80,-99.99,,,-99.99,,2013-02-20 10:12:00,
2013-02-20 05:22:00,25.0,20.0,29.62,North,4,3.0,12.0,80,-99.99,,,-99.99,,2013-02-20 10:22:00,
2013-02-20 05:32:00,25.0,20.0,29.62,SE,139,3.0,8.0,82,-99.99,,,-99.99,,2013-02-20 10:32:00,
2013-02-20 05:42:00,25.0,20.0,29.62,SE,139,3.0,8.0,82,-99.99,,,-99.99,,2013-02-20 10:42:00,
2013-02-20 05:52:00,25.0,20.0,29.62,SE,139,3.0,8.0,82,-99.99,,,-99.99,,2013-02-20 10:52:00,
2013-02-20 06:02:00,25.0,20.0,29.62,SE,139,3.0,8.0,82,-99.99,,,-99.99,,2013-02-20 11:02:00,
2013-02-20 06:52:00,24.0,20.0,29.62,West,261,5.0,9.0,83,-99.99,,,-99.99,,2013-02-20 11:52:00,
2013-02-20 07:02:00,24.0,19.0,29.62,NW,321,7.0,11.0,81,-99.99,,,-99.99,,2013-02-20 12:02:00,
2013-02-20 07:12:00,24.0,19.0,29.62,NW,321,7.0,11.0,81,-99.99,,,-99.99,,2013-02-20 12:12:00,
2013-02-20 07:22:00,24.0,19.0,29.62,NW,321,7.0,11.0,81,-99.99,,,-99.99,,2013-02-20 12:22:00,
2013-02-20 07:32:00,24.0,19.0,29.62,NW,321,7.0,11.0,81,-99.99,,,-99.99,,2013-02-20 12:32:00,
2013-02-20 07:42:00,24.0,19.0,29.62,NW,321,7.0,11.0,81,-99.99,,,-99.99,,2013-02-20 12:42:00,
2013-02-20 07:53:00,24.0,18.0,29.65,NW,320,2.0,7.0,79,-99.99,,,-99.99,,2013-02-20 12:53:00,
2013-02-20 08:01:00,24.0,18.0,29.65,NW,320,2.0,7.0,79,-99.99,,,-99.99,,2013-02-20 13:01:00,
2013-02-20 08:12:00,24.0,18.0,29.65,NW,320,2.0,7.0,79,-99.99,,,-99.99,,2013-02-20 13:12:00,
2013-02-20 08:22:00,24.0,18.0,29.65,NW,320,2.0,7.0,79,-99.99,,,-99.99,,2013-02-20 13:22:00,
2013-02-20 08:52:00,25.0,19.0,29.66,NW,310,4.0,6.0,79,-99.99,,,-99.99,,2013-02-20 13:52:00,
2013-02-20 09:01:00,25.0,19.0,29.66,NW,310,4.0,6.0,79,-99.99,,,-99.99,,2013-02-20 14:01:00,
2013-02-20 09:11:00,25.0,19.0,29.66,NW,310,4.0,6.0,79,-99.99,,,-99.99,,2013-02-20 14:11:00,
2013-02-20 09:21:00,25.0,19.0,29.66,NW,310,4.0,6.0,79,-99.99,,,-99.99,,2013-02-20 14:21:00,
2013-02-20 10:02:00,27.0,18.0,29.65,North,355,4.0,9.0,68,-99.99,,,-99.99,,2013-02-20 15:02:00,
2013-02-20 10:12:00,27.0,18.0,29.65,North,355,4.0,9.0,68,-99.99,,,-99.99,,2013-02-20 15:12:00,
2013-02-20 10:22:00,27.0,18.0,29.65,North,355,4.0,9.0,68,-99.99,,,-99.99,,2013-02-20 15:22:00,
2013-02-20 10:32:00,28.0,18.0,29.65,NNW,348,4.0,8.0,66,-99.99,,,-99.99,,2013-02-20 15:32:00,
2013-02-20 10:42:00,29.0,16.0,29.66,North,6,7.0,11.0,58,-99.99,,,-99.99,,2013-02-20 15:42:00,
2013-02-20 10:52:00,29.0,16.0,29.66,North,6,7.0,11.0,58,-99.99,,,-99.99,,2013-02-20 15:52:00,
2013-02-20 11:01:00,29.0,16.0,29.66,North,6,7.0,11.0,58,-99.99,,,-99.99,,2013-02-20 16:01:00,
2013-02-20 11:12:00,29.0,16.0,29.66,North,6,7.0,11.0,58,-99.99,,,-99.99,,2013-02-20 16:12:00,
2013-02-20 11:21:00,29.0,16.0,29.66,North,6,7.0,11.0,58,-99.99,,,-99.99,,2013-02-20 16:21:00,
2013-02-20 11:32:00,29.0,14.0,29.66,NW,310,5.0,10.0,53,-99.99,,,-99.99,,2013-02-20 16:32:00,
2013-02-20 11:42:00,29.0,14.0,29.66,NW,310,5.0,10.0,53,-99.99,,,-99.99,,2013-02-20 16:42:00,
2013-02-20 11:52:00,29.0,14.0,29.66,NW,310,5.0,10.0,53,-99.99,,,-99.99,,2013-02-20 16:52:00,
2013-02-20 12:01:00,29.0,14.0,29.65,North,350,13.0,18.0,52,-99.99,,,-99.99,,2013-02-20 17:01:00,
2013-02-20 12:11:00,29.0,14.0,29.65,North,350,13.0,18.0,52,-99.99,,,-99.99,,2013-02-20 17:11:00,
2013-02-20 12:21:00,29.0,14.0,29.65,North,350,13.0,18.0,52,-99.99,,,-99.99,,2013-02-20 17:21:00,
2013-02-20 12:32:00,29.0,14.0,29.65,North,0,8.0,12.0,53,-99.99,,,-99.99,,2013-02-20 17:32:00,
2013-02-20 12:42:00,29.0,14.0,29.65,North,0,8.0,12.0,53,-99.99,,,-99.99,,2013-02-20 17:42:00,
2013-02-20 12:52:00,29.0,15.0,29.64,North,4,4.0,12.0,56,-99.99,,,-99.99,,2013-02-20 17:52:00,
2013-02-20 13:02:00,29.0,15.0,29.64,North,4,4.0,12.0,56,-99.99,,,-99.99,,2013-02-20 18:02:00,
2013-02-20 13:11:00,29.0,15.0,29.64,North,4,4.0,12.0,56,-99.99,,,-99.99,,2013-02-20 18:11:00,
2013-02-20 13:22:00,29.0,15.0,29.64,North,4,4.0,12.0,56,-99.99,,,-99.99,,2013-02-20 18:22:00,
2013-02-20 13:32:00,29.0,14.0,29.64,North,9,3.0,11.0,53,-99.99,,,-99.99,,2013-02-20 18:32:00,
2013-02-20 13:42:00,29.0,14.0,29.64,North,9,3.0,11.0,53,-99.99,,,-99.99,,2013-02-20 18:42:00,
2013-02-20 13:52:00,28.0,13.0,29.64,NW,321,11.0,14.0,53,-99.99,,,-99.99,,2013-02-20 18:52:00,
2013-02-20 14:01:00,28.0,13.0,29.65,NNW,344,8.0,15.0,52,-99.99,,,-99.99,,2013-02-20 19:01:00,
2013-02-20 14:11:00,28.0,13.0,29.65,NNW,344,8.0,15.0,52,-99.99,,,-99.99,,2013-02-20 19:11:00,
2013-02-20 14:21:00,28.0,13.0,29.65,NNW,344,8.0,15.0,52,-99.99,,,-99.99,,2013-02-20 19:21:00,
2013-02-20 14:31:00,28.0,13.0,29.65,NW,310,7.0,16.0,53,-99.99,,,-99.99,,2013-02-20 19:31:00,
2013-02-20 14:41:00,28.0,13.0,29.65,NW,310,7.0,16.0,53,-99.99,,,-99.99,,2013-02-20 19:41:00,
2013-02-20 14:52:00,27.0,13.0,29.65,NNW,330,5.0,17.0,56,-99.99,,,-99.99,,2013-02-20 19:52:00,
2013-02-20 15:01:00,26.0,12.0,29.66,NW,317,6.0,14.0,56,-99.99,,,-99.99,,2013-02-20 20:01:00,
2013-02-20 15:11:00,26.0,12.0,29.66,NW,317,6.0,14.0,56,-99.99,,,-99.99,,2013-02-20 20:11:00,
2013-02-20 15:21:00,26.0,12.0,29.66,NW,317,6.0,14.0,56,-99.99,,,-99.99,,2013-02-20 20:21:00,
2013-02-20 15:31:00,26.0,12.0,29.66,NW,317,6.0,14.0,56,-99.99,,,-99.99,,2013-02-20 20:31:00,
2013-02-20 15:41:00,26.0,13.0,29.68,SW,218,7.0,11.0,57,-99.99,,,-99.99,,2013-02-20 20:41:00,
2013-02-20 15:52:00,26.0,13.0,29.68,SW,218,7.0,11.0,57,-99.99,,,-99.99,,2013-02-20 20:52:00,
2013-02-20 16:01:00,26.0,13.0,29.68,SW,218,7.0,11.0,57,-99.99,,,-99.99,,2013-02-20 21:01:00,
2013-02-20 16:11:00,26.0,13.0,29.68,SW,218,7.0,11.0,57,-99.99,,,-99.99,,2013-02-20 21:11:00,
2013-02-20 16:21:00,26.0,13.0,29.68,SW,218,7.0,11.0,57,-99.99,,,-99.99,,2013-02-20 21:21:00,
2013-02-20 16:32:00,26.0,12.0,29.69,West,270,7.0,10.0,54,-99.99,,,-99.99,,2013-02-20 21:32:00,
2013-02-20 16:42:00,26.0,12.0,29.69,West,270,7.0,10.0,54,-99.99,,,-99.99,,2013-02-20 21:42:00,
2013-02-20 16:52:00,25.0,13.0,29.70,West,270,2.0,11.0,59,-99.99,,,-99.99,,2013-02-20 21:52:00,
2013-02-20 17:02:00,25.0,13.0,29.70,NNW,348,7.0,16.0,61,-99.99,,,-99.99,,2013-02-20 22:02:00,
2013-02-20 17:11:00,25.0,13.0,29.70,NNW,348,7.0,16.0,61,-99.99,,,-99.99,,2013-02-20 22:11:00,
2013-02-20 17:21:00,25.0,13.0,29.70,NNW,348,7.0,16.0,61,-99.99,,,-99.99,,2013-02-20 22:21:00,
2013-02-20 17:31:00,24.0,13.0,29.71,NNW,346,12.0,14.0,63,-99.99,,,-99.99,,2013-02-20 22:31:00,
2013-02-20 17:43:00,24.0,13.0,29.71,NNW,346,12.0,14.0,63,-99.99,,,-99.99,,2013-02-20 22:43:00,
2013-02-20 17:52:00,24.0,14.0,29.72,NW,310,5.0,12.0,64,-99.99,,,-99.99,,2013-02-20 22:52:00,
2013-02-20 18:01:00,24.0,14.0,29.72,NNW,345,4.0,11.0,64,-99.99,,,-99.99,,2013-02-20 23:01:00,
2013-02-20 18:12:00,24.0,14.0,29.72,NNW,345,4.0,11.0,64,-99.99,,,-99.99,,2013-02-20 23:12:00,
2013-02-20 18:22:00,24.0,14.0,29.72,NNW,345,4.0,11.0,64,-99.99,,,-99.99,,2013-02-20 23:22:00,
2013-02-20 18:32:00,23.0,13.0,29.72,NNW,337,3.0,7.0,66,-99.99,,,-99.99,,2013-02-20 23:32:00,
2013-02-20 18:42:00,23.0,13.0,29.72,NNW,337,3.0,7.0,66,-99.99,,,-99.99,,2013-02-20 23:42:00,
2013-02-20 18:53:00,24.0,15.0,29.75,North,2,7.0,15.0,67,-99.99,,,-99.99,,2013-02-20 23:53:00,
2013-02-20 19:03:00,23.0,14.0,29.75,SW,234,1.0,13.0,67,-99.99,,,-99.99,,2013-02-21 00:03:00,
2013-02-20 19:11:00,23.0,14.0,29.75,SW,234,1.0,13.0,67,-99.99,,,-99.99,,2013-02-21 00:11:00,
2013-02-20 19:22:00,23.0,14.0,29.75,SW,234,1.0,13.0,67,-99.99,,,-99.99,,2013-02-21 00:22:00,
2013-02-20 19:32:00,23.0,14.0,29.75,SW,234,1.0,13.0,67,-99.99,,,-99.99,,2013-02-21 00:32:00,
2013-02-20 19:42:00,23.0,14.0,29.75,SW,234,1.0,13.0,67,-99.99,,,-99.99,,2013-02-21 00:42:00,
2013-02-20 20:52:00,23.0,16.0,29.75,NW,315,3.0,9.0,73,-99.99,,,-99.99,,2013-02-21 01:52:00,
2013-02-20 21:02:00,23.0,16.0,29.75,NW,315,3.0,9.0,73,-99.99,,,-99.99,,2013-02-21 02:02:00,
2013-02-20 21:10:00,23.0,16.0,29.76,NNW,342,7.0,11.0,75,-99.99,,,-99.99,,2013-02-21 02:10:00,
2013-02-20 21:11:00,23.0,16.0,29.75,NW,315,3.0,9.0,73,-99.99,,,-99.99,,2013-02-21 02:11:00,
2013-02-20 21:21:00,23.0,16.0,29.75,NW,315,3.0,9.0,73,-99.99,,,-99.99,,2013-02-21 02:21:00,
2013-02-20 21:32:00,23.0,16.0,29.76,NNW,342,7.0,11.0,75,-99.99,,,-99.99,,2013-02-21 02:32:00,
2013-02-20 21:42:00,23.0,16.0,29.76,NNW,342,7.0,11.0,75,-99.99,,,-99.99,,2013-02-21 02:42:00,
2013-02-20 21:52:00,23.0,16.0,29.76,NNW,342,7.0,11.0,75,-99.99,,,-99.99,,2013-02-21 02:52:00,
2013-02-20 22:02:00,23.0,16.0,29.76,NNW,342,7.0,11.0,75,-99.99,,,-99.99,,2013-02-21 03:02:00,
2013-02-20 22:32:00,23.0,17.0,29.78,North,11,7.0,7.0,79,-99.99,,,-99.99,,2013-02-21 03:32:00,
2013-02-20 22:42:00,23.0,17.0,29.78,North,11,7.0,7.0,79,-99.99,,,-99.99,,2013-02-21 03:42:00,
2013-02-20 22:52:00,23.0,18.0,29.78,NW,326,2.0,8.0,80,-99.99,,,-99.99,,2013-02-21 03:52:00,
2013-02-20 23:01:00,23.0,18.0,29.78,NW,326,2.0,8.0,80,-99.99,,,-99.99,,2013-02-21 04:01:00,
2013-02-20 23:11:00,23.0,18.0,29.78,NW,326,2.0,8.0,80,-99.99,,,-99.99,,2013-02-21 04:11:00,
2013-02-20 23:22:00,23.0,17.0,29.78,SSW,202,0.0,8.0,78,-99.99,,,-99.99,,2013-02-21 04:22:00,
2013-02-20 23:32:00,23.0,17.0,29.78,NNW,330,11.0,12.0,79,-99.99,,,-99.99,,2013-02-21 04:32:00,
2013-02-20 23:42:00,23.0,17.0,29.78,NNW,330,11.0,12.0,79,-99.99,,,-99.99,,2013-02-21 04:42:00,
2013-02-20 23:51:00,23.0,17.0,29.79,NE,38,3.0,9.0,79,-99.99,,,-99.99,,2013-02-21 04:51:00,
2013-02-20 23:52:00,23.0,17.0,29.79,West,274,1.0,9.0,79,-99.99,,,-99.99,,2013-02-21 04:52:00,